Weather History for Wolf Point, MT

Change the Weather History Date:

Wednesday, November 14, 2012

  Actual Average Record
Temperature  
Mean Temperature 21 °F -  
Max Temperature 35 °F 41 °F 62 °F (1999)
Min Temperature 7 °F 16 °F -17 °F (2014)
Degree Days  
Heating Degree Days 44    
Cooling Degree Days 0    
Moisture  
Dew Point 13 °F    
Average Humidity 89    
Maximum Humidity 100    
Minimum Humidity 78    
Precipitation  
Precipitation 0.00 in 0.02 in 0.01 in (2010)
Month to date precipitation 0.27 0.23  
Year to date precipitation 10.14 11.72  
Sea Level Pressure  
Sea Level Pressure 30.11 in    
Wind  
Wind Speed 1 mph (WSW)    
Max Wind Speed 10 mph    
Max Gust Speed -    
Visibility 5 miles    
Events Fog    
T = Trace of Precipitation, MM = Missing Value Source: NWS Daily Summary

Daily Weather History Graph

Daily Weather History Graph

Search for Another Location

Airport:

Trip Planner

Search our weather history database for the weather conditions in past years. The results will help you decide how hot, cold, wet, or windy it might be!

Date:

Astronomy

Nov. 14, 2012 Rise Set
Actual Time 7:08 AM MST 4:24 PM MST
Civil Twilight 6:34 AM MST 4:58 PM MST
Nautical Twilight 5:56 AM MST 5:36 PM MST
Astronomical Twilight 5:19 AM MST 6:13 PM MST
Moon 8:05 AM MST (11/14) 5:10 PM MST (11/14)
Length of Visible Light 10h 24m
Length of Day
9h 16m
New Moon, 1% of the Moon is Illuminated
Nov 14
New Moon
Nov 20
First Quarter
Nov 28
Full
Dec 6
Last Quarter
Dec 13
New

Hourly Weather History & Observations

Time (MST) Temp. Windchill Dew Point Humidity Pressure Visibility Wind Dir Wind Speed Gust Speed Precip Events Conditions
12:07 AM 15.8 °F - 12.2 °F 86% 30.07 in 3.0 mi Calm Calm - N/A   Overcast
12:35 AM 14.0 °F - 12.2 °F 93% 30.07 in 3.0 mi Calm Calm - N/A   Scattered Clouds
12:49 AM 14.0 °F - 10.4 °F 86% 30.06 in 1.8 mi Calm Calm - N/A   Scattered Clouds
12:53 AM 12.9 °F - 10.9 °F 92% 30.17 in 1.2 mi Calm Calm - N/A   Scattered Clouds
1:05 AM 12.2 °F - 8.6 °F 85% 30.06 in 10.0 mi Calm Calm - N/A   Mostly Cloudy
1:14 AM 12.2 °F - 10.4 °F 92% 30.06 in 1.0 mi Calm Calm - N/A   Mist
1:21 AM 10.4 °F - 10.4 °F 100% 30.06 in 0.2 mi Calm Calm - N/A Fog Light Freezing Fog
1:53 AM 9.0 °F - 8.1 °F 96% 30.17 in 0.2 mi Calm Calm - N/A Fog Light Freezing Fog
2:53 AM 10.0 °F 3.6 °F 7.0 °F 87% 30.16 in 0.2 mi North 3.5 mph - N/A Fog Light Freezing Fog
3:53 AM 9.0 °F - 7.0 °F 92% 30.15 in 0.5 mi Calm Calm - N/A Fog Light Freezing Fog
4:53 AM 8.1 °F - 6.1 °F 92% 30.15 in 0.2 mi Calm Calm - N/A Fog Light Freezing Fog
5:05 AM 8.6 °F - 6.8 °F 92% 30.03 in 0.2 mi Calm Calm - N/A Fog Light Freezing Fog
5:25 AM 8.6 °F - 6.8 °F 92% 30.02 in 1.2 mi Calm Calm - N/A   Mist
5:29 AM 8.6 °F - 6.8 °F 92% 30.02 in 3.0 mi Calm Calm - N/A   Mist
5:34 AM 8.6 °F - 5.0 °F 85% 30.02 in 1.8 mi Calm Calm - N/A   Mist
5:37 AM 8.6 °F - 6.8 °F 92% 30.02 in 0.8 mi Calm Calm - N/A   Mist
5:53 AM 8.1 °F - 6.1 °F 92% 30.14 in 0.2 mi Calm Calm - N/A Fog Light Freezing Fog
6:09 AM 8.6 °F - 6.8 °F 92% 30.02 in 1.5 mi Calm Calm - N/A   Mostly Cloudy
6:17 AM 8.6 °F - 6.8 °F 92% 30.02 in 1.8 mi Calm Calm - N/A   Partly Cloudy
6:22 AM 8.6 °F - 6.8 °F 92% 30.02 in 4.0 mi Calm Calm - N/A   Partly Cloudy
6:35 AM 8.6 °F - 5.0 °F 85% 30.02 in 1.0 mi Calm Calm - N/A   Mist
6:42 AM 6.8 °F - 5.0 °F 92% 30.03 in 0.2 mi Calm Calm - N/A Fog Light Freezing Fog
6:53 AM 9.0 °F - 6.1 °F 88% 30.15 in 0.2 mi Calm Calm - N/A Fog Light Freezing Fog
7:51 AM 8.6 °F - 6.8 °F 92% 30.03 in 1.5 mi Calm Calm - N/A   Mostly Cloudy
7:53 AM 9.0 °F - 7.0 °F 92% 30.15 in 3.0 mi Calm Calm - N/A   Mostly Cloudy
8:01 AM 8.6 °F - 6.8 °F 92% 30.03 in 4.0 mi Calm Calm - N/A   Scattered Clouds
8:53 AM 14.0 °F - 10.0 °F 84% 30.14 in 7.0 mi Calm Calm - N/A   Scattered Clouds
9:53 AM 18.0 °F - 17.1 °F 96% 30.14 in 7.0 mi Calm Calm - N/A   Clear
10:53 AM 25.0 °F - 21.0 °F 85% 30.13 in 9.0 mi Calm Calm - N/A   Clear
11:53 AM 28.9 °F 23.9 °F 25.0 °F 85% 30.11 in 10.0 mi West 4.6 mph - N/A   Clear
12:53 PM 33.1 °F 28.7 °F 27.0 °F 78% 30.09 in 10.0 mi NW 4.6 mph - N/A   Clear
1:53 PM 34.0 °F 28.8 °F 28.0 °F 79% 30.09 in 10.0 mi WSW 5.8 mph - N/A   Clear
2:53 PM 34.0 °F 28.8 °F 28.0 °F 79% 30.09 in 10.0 mi WSW 5.8 mph - N/A   Clear
3:53 PM 33.1 °F 27.7 °F 27.0 °F 78% 30.10 in 10.0 mi WSW 5.8 mph - N/A   Clear
4:53 PM 28.9 °F 25.2 °F 25.0 °F 85% 30.13 in 10.0 mi SSW 3.5 mph - N/A   Clear
5:53 PM 28.0 °F 20.8 °F 24.1 °F 85% 30.17 in 10.0 mi WSW 6.9 mph - N/A   Clear
6:53 PM 27.0 °F 18.0 °F 23.0 °F 85% 30.19 in 10.0 mi WSW 9.2 mph - N/A   Clear
7:53 PM 25.0 °F 14.8 °F 21.9 °F 88% 30.23 in 10.0 mi WSW 10.4 mph - N/A   Scattered Clouds
8:53 PM 23.0 °F 13.1 °F 19.9 °F 88% 30.26 in 10.0 mi WSW 9.2 mph - N/A   Clear
9:53 PM 21.9 °F 11.7 °F 19.0 °F 89% 30.28 in 10.0 mi WSW 9.2 mph - N/A   Clear
10:53 PM 19.9 °F 10.1 °F 17.1 °F 89% 30.31 in 10.0 mi WSW 8.1 mph - N/A   Clear
11:53 PM 18.0 °F 9.8 °F 16.0 °F 92% 30.34 in 10.0 mi WSW 5.8 mph - N/A   Clear